datetime,flow
1944-10-01,100.0
1944-10-02,100.0
1944-10-03,100.0
1944-10-04,100.0
1944-10-05,100.0
1944-10-06,100.0
1944-10-07,100.0
1944-10-08,100.0
1944-10-09,100.0
1944-10-10,100.0
1944-10-11,90.0
1944-10-12,90.0
1944-10-13,90.0
1944-10-14,90.0
1944-10-15,90.0
1944-10-16,90.0
1944-10-17,90.0
1944-10-18,90.0
1944-10-19,90.0
1944-10-20,90.0
1944-10-21,90.0
1944-10-22,90.0
1944-10-23,90.0
1944-10-24,90.0
1944-10-25,89.0
1944-10-26,89.0
1944-10-27,87.0
1944-10-28,87.0
1944-10-29,90.0
1944-10-30,90.0
1944-10-31,92.0
1944-11-01,95.0
1944-11-02,90.0
1944-11-03,92.0
1944-11-04,92.0
1944-11-05,92.0
1944-11-06,98.0
1944-11-07,95.0
1944-11-08,87.0
1944-11-09,89.0
1944-11-10,90.0
1944-11-11,95.0
1944-11-12,95.0
1944-11-13,92.0
1944-11-14,86.0
1944-11-15,89.0
1944-11-16,86.0
1944-11-17,86.0
1944-11-18,83.0
1944-11-19,83.0
1944-11-20,80.0
1944-11-21,82.0
1944-11-22,82.0
1944-11-23,79.0
1944-11-24,76.0
1944-11-25,74.0
1944-11-26,70.0
1944-11-27,75.0
1944-11-28,75.0
1944-11-29,74.0
1944-11-30,74.0
1944-12-01,60.0
1944-12-02,60.0
1944-12-03,60.0
1944-12-04,60.0
1944-12-05,60.0
1944-12-06,60.0
1944-12-07,60.0
1944-12-08,60.0
1944-12-09,60.0
1944-12-10,60.0
1944-12-11,60.0
1944-12-12,60.0
1944-12-13,60.0
1944-12-14,60.0
1944-12-15,60.0
1944-12-16,50.0
1944-12-17,50.0
1944-12-18,50.0
1944-12-19,50.0
1944-12-20,50.0
1944-12-21,50.0
1944-12-22,50.0
1944-12-23,50.0
1944-12-24,50.0
1944-12-25,50.0
1944-12-26,50.0
1944-12-27,50.0
1944-12-28,50.0
1944-12-29,50.0
1944-12-30,50.0
1944-12-31,50.0
1945-01-01,45.0
1945-01-02,45.0
1945-01-03,45.0
1945-01-04,45.0
1945-01-05,45.0
1945-01-06,45.0
1945-01-07,45.0
1945-01-08,45.0
1945-01-09,45.0
1945-01-10,45.0
1945-01-11,45.0
1945-01-12,45.0
1945-01-13,45.0
1945-01-14,45.0
1945-01-15,45.0
1945-01-16,45.0
1945-01-17,45.0
1945-01-18,45.0
1945-01-19,45.0
1945-01-20,45.0
1945-01-21,45.0
1945-01-22,45.0
1945-01-23,45.0
1945-01-24,45.0
1945-01-25,45.0
1945-01-26,45.0
1945-01-27,45.0
1945-01-28,45.0
1945-01-29,45.0
1945-01-30,45.0
1945-01-31,45.0
1945-02-01,42.0
1945-02-02,42.0
1945-02-03,42.0
1945-02-04,42.0
1945-02-05,42.0
1945-02-06,42.0
1945-02-07,42.0
1945-02-08,42.0
1945-02-09,42.0
1945-02-10,42.0
1945-02-11,42.0
1945-02-12,42.0
1945-02-13,42.0
1945-02-14,42.0
1945-02-15,42.0
1945-02-16,42.0
1945-02-17,42.0
1945-02-18,42.0
1945-02-19,42.0
1945-02-20,42.0
1945-02-21,42.0
1945-02-22,42.0
1945-02-23,42.0
1945-02-24,42.0
1945-02-25,42.0
1945-02-26,42.0
1945-02-27,42.0
1945-02-28,42.0
1945-03-01,45.0
1945-03-02,44.0
1945-03-03,44.0
1945-03-04,44.0
1945-03-05,44.0
1945-03-06,44.0
1945-03-07,45.0
1945-03-08,45.0
1945-03-09,46.0
1945-03-10,44.0
1945-03-11,44.0
1945-03-12,45.0
1945-03-13,47.0
1945-03-14,46.0
1945-03-15,46.0
1945-03-16,47.0
1945-03-17,48.0
1945-03-18,45.0
1945-03-19,45.0
1945-03-20,46.0
1945-03-21,47.0
1945-03-22,48.0
1945-03-23,46.0
1945-03-24,45.0
1945-03-25,45.0
1945-03-26,47.0
1945-03-27,45.0
1945-03-28,46.0
1945-03-29,44.0
1945-03-30,45.0
1945-03-31,46.0
1945-04-01,48.0
1945-04-02,46.0
1945-04-03,42.0
1945-04-04,42.0
1945-04-05,43.0
1945-04-06,46.0
1945-04-07,47.0
1945-04-08,48.0
1945-04-09,47.0
1945-04-10,44.0
1945-04-11,42.0
1945-04-12,42.0
1945-04-13,41.0
1945-04-14,40.0
1945-04-15,40.0
1945-04-16,41.0
1945-04-17,43.0
1945-04-18,49.0
1945-04-19,55.0
1945-04-20,69.0
1945-04-21,74.0
1945-04-22,75.0
1945-04-23,69.0
1945-04-24,67.0
1945-04-25,56.0
1945-04-26,55.0
1945-04-27,54.0
1945-04-28,56.0
1945-04-29,59.0
1945-04-30,70.0
1945-05-01,82.0
1945-05-02,96.0
1945-05-03,111.0
1945-05-04,123.0
1945-05-05,147.0
1945-05-06,158.0
1945-05-07,172.0
1945-05-08,207.0
1945-05-09,249.0
1945-05-10,292.0
1945-05-11,308.0
1945-05-12,328.0
1945-05-13,358.0
1945-05-14,320.0
1945-05-15,263.0
1945-05-16,225.0
1945-05-17,216.0
1945-05-18,216.0
1945-05-19,232.0
1945-05-20,222.0
1945-05-21,198.0
1945-05-22,182.0
1945-05-23,169.0
1945-05-24,179.0
1945-05-25,235.0
1945-05-26,289.0
1945-05-27,242.0
1945-05-28,239.0
1945-05-29,296.0
1945-05-30,336.0
1945-05-31,300.0
1945-06-01,245.0
1945-06-02,245.0
1945-06-03,292.0
1945-06-04,300.0
1945-06-05,296.0
1945-06-06,263.0
1945-06-07,242.0
1945-06-08,225.0
1945-06-09,235.0
1945-06-10,252.0
1945-06-11,235.0
1945-06-12,281.0
1945-06-13,402.0
1945-06-14,484.0
1945-06-15,397.0
1945-06-16,332.0
1945-06-17,312.0
1945-06-18,362.0
1945-06-19,479.0
1945-06-20,548.0
1945-06-21,665.0
1945-06-22,736.0
1945-06-23,724.0
1945-06-24,694.0
1945-06-25,636.0
1945-06-26,548.0
1945-06-27,553.0
1945-06-28,388.0
1945-06-29,345.0
1945-06-30,296.0
1945-07-01,316.0
1945-07-02,366.0
1945-07-03,379.0
1945-07-04,362.0
1945-07-05,388.0
1945-07-06,358.0
1945-07-07,336.0
1945-07-08,308.0
1945-07-09,296.0
1945-07-10,366.0
1945-07-11,379.0
1945-07-12,324.0
1945-07-13,304.0
1945-07-14,285.0
1945-07-15,259.0
1945-07-16,239.0
1945-07-17,222.0
1945-07-18,219.0
1945-07-19,242.0
1945-07-20,242.0
1945-07-21,219.0
1945-07-22,216.0
1945-07-23,270.0
1945-07-24,328.0
1945-07-25,242.0
1945-07-26,216.0
1945-07-27,198.0
1945-07-28,182.0
1945-07-29,177.0
1945-07-30,195.0
1945-07-31,207.0
1945-08-01,210.0
1945-08-02,232.0
1945-08-03,204.0
1945-08-04,235.0
1945-08-05,201.0
1945-08-06,195.0
1945-08-07,192.0
1945-08-08,190.0
1945-08-09,204.0
1945-08-10,187.0
1945-08-11,172.0
1945-08-12,177.0
1945-08-13,252.0
1945-08-14,216.0
1945-08-15,235.0
1945-08-16,198.0
1945-08-17,179.0
1945-08-18,177.0
1945-08-19,213.0
1945-08-20,216.0
1945-08-21,185.0
1945-08-22,172.0
1945-08-23,160.0
1945-08-24,160.0
1945-08-25,167.0
1945-08-26,174.0
1945-08-27,151.0
1945-08-28,143.0
1945-08-29,139.0
1945-08-30,139.0
1945-08-31,131.0
1945-09-01,127.0
1945-09-02,123.0
1945-09-03,151.0
1945-09-04,143.0
1945-09-05,133.0
1945-09-06,125.0
1945-09-07,122.0
1945-09-08,118.0
1945-09-09,114.0
1945-09-10,111.0
1945-09-11,106.0
1945-09-12,104.0
1945-09-13,101.0
1945-09-14,101.0
1945-09-15,101.0
1945-09-16,107.0
1945-09-17,106.0
1945-09-18,103.0
1945-09-19,101.0
1945-09-20,98.0
1945-09-21,95.0
1945-09-22,122.0
1945-09-23,143.0
1945-09-24,139.0
1945-09-25,145.0
1945-09-26,139.0
1945-09-27,131.0
1945-09-28,123.0
1945-09-29,120.0
1945-09-30,116.0
1945-10-01,113.0
1945-10-02,108.0
1945-10-03,108.0
1945-10-04,104.0
1945-10-05,96.0
1945-10-06,99.0
1945-10-07,88.0
1945-10-08,85.0
1945-10-09,85.0
1945-10-10,82.0
1945-10-11,88.0
1945-10-12,101.0
1945-10-13,97.0
1945-10-14,91.0
1945-10-15,86.0
1945-10-16,86.0
1945-10-17,86.0
1945-10-18,83.0
1945-10-19,80.0
1945-10-20,80.0
1945-10-21,79.0
1945-10-22,79.0
1945-10-23,75.0
1945-10-24,73.0
1945-10-25,75.0
1945-10-26,75.0
1945-10-27,75.0
1945-10-28,73.0
1945-10-29,73.0
1945-10-30,75.0
1945-10-31,76.0
1945-11-01,72.0
1945-11-02,72.0
1945-11-03,72.0
1945-11-04,72.0
1945-11-05,72.0
1945-11-06,72.0
1945-11-07,70.0
1945-11-08,69.0
1945-11-09,64.0
1945-11-10,69.0
1945-11-11,70.0
1945-11-12,70.0
1945-11-13,70.0
1945-11-14,66.0
1945-11-15,68.0
1945-11-16,67.0
1945-11-17,65.0
1945-11-18,64.0
1945-11-19,64.0
1945-11-20,64.0
1945-11-21,64.0
1945-11-22,64.0
1945-11-23,64.0
1945-11-24,64.0
1945-11-25,64.0
1945-11-26,64.0
1945-11-27,64.0
1945-11-28,64.0
1945-11-29,64.0
1945-11-30,64.0
1945-12-01,55.0
1945-12-02,55.0
1945-12-03,55.0
1945-12-04,55.0
1945-12-05,55.0
1945-12-06,55.0
1945-12-07,55.0
1945-12-08,55.0
1945-12-09,55.0
1945-12-10,55.0
1945-12-11,55.0
1945-12-12,55.0
1945-12-13,55.0
1945-12-14,55.0
1945-12-15,55.0
1945-12-16,55.0
1945-12-17,55.0
1945-12-18,55.0
1945-12-19,55.0
1945-12-20,55.0
1945-12-21,55.0
1945-12-22,55.0
1945-12-23,55.0
1945-12-24,55.0
1945-12-25,55.0
1945-12-26,55.0
1945-12-27,55.0
1945-12-28,55.0
1945-12-29,55.0
1945-12-30,55.0
1945-12-31,55.0
1946-01-01,51.0
1946-01-02,51.0
1946-01-03,51.0
1946-01-04,51.0
1946-01-05,51.0
1946-01-06,51.0
1946-01-07,51.0
1946-01-08,51.0
1946-01-09,51.0
1946-01-10,51.0
1946-01-11,51.0
1946-01-12,51.0
1946-01-13,51.0
1946-01-14,51.0
1946-01-15,51.0
1946-01-16,51.0
1946-01-17,51.0
1946-01-18,51.0
1946-01-19,51.0
1946-01-20,51.0
1946-01-21,51.0
1946-01-22,51.0
1946-01-23,51.0
1946-01-24,51.0
1946-01-25,51.0
1946-01-26,51.0
1946-01-27,51.0
1946-01-28,51.0
1946-01-29,51.0
1946-01-30,51.0
1946-01-31,51.0
1946-02-01,45.0
1946-02-02,45.0
1946-02-03,45.0
1946-02-04,45.0
1946-02-05,45.0
1946-02-06,45.0
1946-02-07,45.0
1946-02-08,45.0
1946-02-09,45.0
1946-02-10,45.0
1946-02-11,45.0
1946-02-12,45.0
1946-02-13,45.0
1946-02-14,45.0
1946-02-15,45.0
1946-02-16,45.0
1946-02-17,45.0
1946-02-18,45.0
1946-02-19,45.0
1946-02-20,45.0
1946-02-21,45.0
1946-02-22,45.0
1946-02-23,45.0
1946-02-24,45.0
1946-02-25,45.0
1946-02-26,45.0
1946-02-27,45.0
1946-02-28,45.0
1946-03-01,44.0
1946-03-02,44.0
1946-03-03,44.0
1946-03-04,44.0
1946-03-05,44.0
1946-03-06,44.0
1946-03-07,44.0
1946-03-08,44.0
1946-03-09,44.0
1946-03-10,44.0
1946-03-11,44.0
1946-03-12,44.0
1946-03-13,44.0
1946-03-14,44.0
1946-03-15,44.0
1946-03-16,44.0
1946-03-17,44.0
1946-03-18,44.0
1946-03-19,44.0
1946-03-20,44.0
1946-03-21,44.0
1946-03-22,44.0
1946-03-23,44.0
1946-03-24,44.0
1946-03-25,44.0
1946-03-26,44.0
1946-03-27,44.0
1946-03-28,44.0
1946-03-29,44.0
1946-03-30,44.0
1946-03-31,44.0
1946-04-01,52.0
1946-04-02,52.0
1946-04-03,48.0
1946-04-04,47.0
1946-04-05,53.0
1946-04-06,52.0
1946-04-07,52.0
1946-04-08,52.0
1946-04-09,50.0
1946-04-10,48.0
1946-04-11,50.0
1946-04-12,56.0
1946-04-13,61.0
1946-04-14,64.0
1946-04-15,64.0
1946-04-16,70.0
1946-04-17,82.0
1946-04-18,93.0
1946-04-19,104.0
1946-04-20,104.0
1946-04-21,119.0
1946-04-22,121.0
1946-04-23,131.0
1946-04-24,152.0
1946-04-25,186.0
1946-04-26,229.0
1946-04-27,304.0
1946-04-28,296.0
1946-04-29,316.0
1946-04-30,308.0
1946-05-01,248.0
1946-05-02,222.0
1946-05-03,207.0
1946-05-04,280.0
1946-05-05,395.0
1946-05-06,426.0
1946-05-07,405.0
1946-05-08,316.0
1946-05-09,284.0
1946-05-10,241.0
1946-05-11,207.0
1946-05-12,191.0
1946-05-13,186.0
1946-05-14,173.0
1946-05-15,173.0
1946-05-16,169.0
1946-05-17,178.0
1946-05-18,229.0
1946-05-19,272.0
1946-05-20,266.0
1946-05-21,300.0
1946-05-22,288.0
1946-05-23,241.0
1946-05-24,202.0
1946-05-25,188.0
1946-05-26,191.0
1946-05-27,202.0
1946-05-28,199.0
1946-05-29,188.0
1946-05-30,173.0
1946-05-31,181.0
1946-06-01,226.0
1946-06-02,226.0
1946-06-03,320.0
1946-06-04,491.0
1946-06-05,565.0
1946-06-06,508.0
1946-06-07,421.0
1946-06-08,390.0
1946-06-09,386.0
1946-06-10,361.0
1946-06-11,316.0
1946-06-12,258.0
1946-06-13,248.0
1946-06-14,244.0
1946-06-15,248.0
1946-06-16,248.0
1946-06-17,219.0
1946-06-18,202.0
1946-06-19,186.0
1946-06-20,169.0
1946-06-21,169.0
1946-06-22,164.0
1946-06-23,161.0
1946-06-24,150.0
1946-06-25,139.0
1946-06-26,137.0
1946-06-27,135.0
1946-06-28,133.0
1946-06-29,131.0
1946-06-30,129.0
1946-07-01,127.0
1946-07-02,125.0
1946-07-03,125.0
1946-07-04,121.0
1946-07-05,108.0
1946-07-06,148.0
1946-07-07,127.0
1946-07-08,125.0
1946-07-09,113.0
1946-07-10,104.0
1946-07-11,103.0
1946-07-12,103.0
1946-07-13,115.0
1946-07-14,108.0
1946-07-15,104.0
1946-07-16,101.0
1946-07-17,121.0
1946-07-18,131.0
1946-07-19,129.0
1946-07-20,127.0
1946-07-21,121.0
1946-07-22,119.0
1946-07-23,119.0
1946-07-24,135.0
1946-07-25,157.0
1946-07-26,144.0
1946-07-27,129.0
1946-07-28,121.0
1946-07-29,117.0
1946-07-30,127.0
1946-07-31,135.0
1946-08-01,121.0
1946-08-02,113.0
1946-08-03,110.0
1946-08-04,103.0
1946-08-05,99.0
1946-08-06,103.0
1946-08-07,99.0
1946-08-08,93.0
1946-08-09,89.0
1946-08-10,89.0
1946-08-11,88.0
1946-08-12,110.0
1946-08-13,103.0
1946-08-14,112.0
1946-08-15,104.0
1946-08-16,99.0
1946-08-17,91.0
1946-08-18,85.0
1946-08-19,82.0
1946-08-20,79.0
1946-08-21,99.0
1946-08-22,104.0
1946-08-23,137.0
1946-08-24,125.0
1946-08-25,110.0
1946-08-26,106.0
1946-08-27,119.0
1946-08-28,119.0
1946-08-29,112.0
1946-08-30,96.0
1946-08-31,88.0
1946-09-01,88.0
1946-09-02,94.0
1946-09-03,86.0
1946-09-04,83.0
1946-09-05,80.0
1946-09-06,79.0
1946-09-07,77.0
1946-09-08,76.0
1946-09-09,75.0
1946-09-10,72.0
1946-09-11,72.0
1946-09-12,75.0
1946-09-13,80.0
1946-09-14,75.0
1946-09-15,77.0
1946-09-16,80.0
1946-09-17,77.0
1946-09-18,75.0
1946-09-19,73.0
1946-09-20,72.0
1946-09-21,69.0
1946-09-22,67.0
1946-09-23,65.0
1946-09-24,65.0
1946-09-25,64.0
1946-09-26,62.0
1946-09-27,62.0
1946-09-28,61.0
1946-09-29,59.0
1946-09-30,59.0
1946-10-01,66.0
1946-10-02,99.0
1946-10-03,81.0
1946-10-04,80.0
1946-10-05,81.0
1946-10-06,85.0
1946-10-07,83.0
1946-10-08,83.0
1946-10-09,80.0
1946-10-10,78.0
1946-10-11,76.0
1946-10-12,77.0
1946-10-13,76.0
1946-10-14,75.0
1946-10-15,74.0
1946-10-16,74.0
1946-10-17,76.0
1946-10-18,76.0
1946-10-19,74.0
1946-10-20,74.0
1946-10-21,74.0
1946-10-22,74.0
1946-10-23,72.0
1946-10-24,68.0
1946-10-25,71.0
1946-10-26,70.0
1946-10-27,76.0
1946-10-28,92.0
1946-10-29,99.0
1946-10-30,83.0
1946-10-31,82.0
1946-11-01,81.0
1946-11-02,80.0
1946-11-03,78.0
1946-11-04,76.0
1946-11-05,72.0
1946-11-06,71.0
1946-11-07,71.0
1946-11-08,72.0
1946-11-09,70.0
1946-11-10,70.0
1946-11-11,70.0
1946-11-12,69.0
1946-11-13,68.0
1946-11-14,71.0
1946-11-15,70.0
1946-11-16,70.0
1946-11-17,70.0
1946-11-18,70.0
1946-11-19,70.0
1946-11-20,68.0
1946-11-21,70.0
1946-11-22,73.0
1946-11-23,71.0
1946-11-24,69.0
1946-11-25,69.0
1946-11-26,69.0
1946-11-27,69.0
1946-11-28,69.0
1946-11-29,66.0
1946-11-30,66.0
1946-12-01,66.0
1946-12-02,65.0
1946-12-03,67.0
1946-12-04,65.0
1946-12-05,65.0
1946-12-06,65.0
1946-12-07,65.0
1946-12-08,64.0
1946-12-09,59.0
1946-12-10,66.0
1946-12-11,68.0
1946-12-12,68.0
1946-12-13,68.0
1946-12-14,64.0
1946-12-15,67.0
1946-12-16,65.0
1946-12-17,57.0
1946-12-18,55.0
1946-12-19,63.0
1946-12-20,71.0
1946-12-21,66.0
1946-12-22,61.0
1946-12-23,58.0
1946-12-24,61.0
1946-12-25,64.0
1946-12-26,62.0
1946-12-27,63.0
1946-12-28,63.0
1946-12-29,59.0
1946-12-30,56.0
1946-12-31,56.0
1947-01-01,56.0
1947-01-02,56.0
1947-01-03,56.0
1947-01-04,56.0
1947-01-05,56.0
1947-01-06,56.0
1947-01-07,56.0
1947-01-08,56.0
1947-01-09,56.0
1947-01-10,56.0
1947-01-11,56.0
1947-01-12,56.0
1947-01-13,56.0
1947-01-14,56.0
1947-01-15,56.0
1947-01-16,56.0
1947-01-17,56.0
1947-01-18,56.0
1947-01-19,56.0
1947-01-20,56.0
1947-01-21,56.0
1947-01-22,56.0
1947-01-23,56.0
1947-01-24,56.0
1947-01-25,56.0
1947-01-26,56.0
1947-01-27,56.0
1947-01-28,56.0
1947-01-29,56.0
1947-01-30,56.0
1947-01-31,56.0
1947-02-01,54.0
1947-02-02,54.0
1947-02-03,54.0
1947-02-04,54.0
1947-02-05,54.0
1947-02-06,54.0
1947-02-07,54.0
1947-02-08,54.0
1947-02-09,54.0
1947-02-10,54.0
1947-02-11,54.0
1947-02-12,52.0
1947-02-13,52.0
1947-02-14,52.0
1947-02-15,52.0
1947-02-16,52.0
1947-02-17,52.0
1947-02-18,52.0
1947-02-19,52.0
1947-02-20,52.0
1947-02-21,52.0
1947-02-22,52.0
1947-02-23,52.0
1947-02-24,52.0
1947-02-25,52.0
1947-02-26,52.0
1947-02-27,52.0
1947-02-28,52.0
1947-03-01,51.0
1947-03-02,51.0
1947-03-03,51.0
1947-03-04,51.0
1947-03-05,51.0
1947-03-06,51.0
1947-03-07,51.0
1947-03-08,51.0
1947-03-09,51.0
1947-03-10,51.0
1947-03-11,50.0
1947-03-12,50.0
1947-03-13,50.0
1947-03-14,50.0
1947-03-15,50.0
1947-03-16,51.0
1947-03-17,51.0
1947-03-18,52.0
1947-03-19,53.0
1947-03-20,54.0
1947-03-21,55.0
1947-03-22,58.0
1947-03-23,59.0
1947-03-24,57.0
1947-03-25,55.0
1947-03-26,57.0
1947-03-27,54.0
1947-03-28,60.0
1947-03-29,55.0
1947-03-30,54.0
1947-03-31,58.0
1947-04-01,58.0
1947-04-02,60.0
1947-04-03,60.0
1947-04-04,58.0
1947-04-05,59.0
1947-04-06,57.0
1947-04-07,57.0
1947-04-08,57.0
1947-04-09,60.0
1947-04-10,57.0
1947-04-11,58.0
1947-04-12,56.0
1947-04-13,58.0
1947-04-14,65.0
1947-04-15,76.0
1947-04-16,81.0
1947-04-17,81.0
1947-04-18,83.0
1947-04-19,78.0
1947-04-20,86.0
1947-04-21,93.0
1947-04-22,93.0
1947-04-23,83.0
1947-04-24,77.0
1947-04-25,77.0
1947-04-26,74.0
1947-04-27,81.0
1947-04-28,78.0
1947-04-29,77.0
1947-04-30,83.0
1947-05-01,99.0
1947-05-02,134.0
1947-05-03,187.0
1947-05-04,262.0
1947-05-05,331.0
1947-05-06,402.0
1947-05-07,498.0
1947-05-08,650.0
1947-05-09,713.0
1947-05-10,560.0
1947-05-11,498.0
1947-05-12,407.0
1947-05-13,361.0
1947-05-14,335.0
1947-05-15,302.0
1947-05-16,323.0
1947-05-17,356.0
1947-05-18,370.0
1947-05-19,402.0
1947-05-20,477.0
1947-05-21,566.0
1947-05-22,650.0
1947-05-23,681.0
1947-05-24,625.0
1947-05-25,694.0
1947-05-26,746.0
1947-05-27,772.0
1947-05-28,656.0
1947-05-29,526.0
1947-05-30,498.0
1947-05-31,472.0
1947-06-01,498.0
1947-06-02,509.0
1947-06-03,520.0
1947-06-04,451.0
1947-06-05,462.0
1947-06-06,446.0
1947-06-07,572.0
1947-06-08,820.0
1947-06-09,752.0
1947-06-10,520.0
1947-06-11,482.0
1947-06-12,407.0
1947-06-13,374.0
1947-06-14,379.0
1947-06-15,384.0
1947-06-16,482.0
1947-06-17,584.0
1947-06-18,488.0
1947-06-19,601.0
1947-06-20,681.0
1947-06-21,477.0
1947-06-22,407.0
1947-06-23,374.0
1947-06-24,339.0
1947-06-25,327.0
1947-06-26,366.0
1947-06-27,402.0
1947-06-28,417.0
1947-06-29,402.0
1947-06-30,361.0
1947-07-01,352.0
1947-07-02,374.0
1947-07-03,431.0
1947-07-04,446.0
1947-07-05,407.0
1947-07-06,374.0
1947-07-07,397.0
1947-07-08,397.0
1947-07-09,374.0
1947-07-10,348.0
1947-07-11,327.0
1947-07-12,295.0
1947-07-13,276.0
1947-07-14,262.0
1947-07-15,258.0
1947-07-16,283.0
1947-07-17,276.0
1947-07-18,248.0
1947-07-19,229.0
1947-07-20,226.0
1947-07-21,219.0
1947-07-22,216.0
1947-07-23,204.0
1947-07-24,196.0
1947-07-25,187.0
1947-07-26,176.0
1947-07-27,172.0
1947-07-28,169.0
1947-07-29,169.0
1947-07-30,169.0
1947-07-31,169.0
1947-08-01,172.0
1947-08-02,172.0
1947-08-03,169.0
1947-08-04,187.0
1947-08-05,187.0
1947-08-06,169.0
1947-08-07,164.0
1947-08-08,169.0
1947-08-09,199.0
1947-08-10,199.0
1947-08-11,182.0
1947-08-12,166.0
1947-08-13,156.0
1947-08-14,156.0
1947-08-15,159.0
1947-08-16,154.0
1947-08-17,174.0
1947-08-18,154.0
1947-08-19,145.0
1947-08-20,141.0
1947-08-21,162.0
1947-08-22,235.0
1947-08-23,193.0
1947-08-24,185.0
1947-08-25,176.0
1947-08-26,159.0
1947-08-27,145.0
1947-08-28,139.0
1947-08-29,136.0
1947-08-30,174.0
1947-08-31,150.0
1947-09-01,141.0
1947-09-02,132.0
1947-09-03,132.0
1947-09-04,128.0
1947-09-05,128.0
1947-09-06,128.0
1947-09-07,126.0
1947-09-08,122.0
1947-09-09,126.0
1947-09-10,128.0
1947-09-11,134.0
1947-09-12,145.0
1947-09-13,143.0
1947-09-14,139.0
1947-09-15,136.0
1947-09-16,136.0
1947-09-17,152.0
1947-09-18,141.0
1947-09-19,141.0
1947-09-20,130.0
1947-09-21,126.0
1947-09-22,122.0
1947-09-23,121.0
1947-09-24,119.0
1947-09-25,115.0
1947-09-26,113.0
1947-09-27,110.0
1947-09-28,110.0
1947-09-29,108.0
1947-09-30,110.0
1947-10-01,110.0
1947-10-02,106.0
1947-10-03,104.0
1947-10-04,104.0
1947-10-05,103.0
1947-10-06,99.0
1947-10-07,98.0
1947-10-08,96.0
1947-10-09,95.0
1947-10-10,96.0
1947-10-11,103.0
1947-10-12,99.0
1947-10-13,101.0
1947-10-14,104.0
1947-10-15,98.0
1947-10-16,95.0
1947-10-17,93.0
1947-10-18,92.0
1947-10-19,90.0
1947-10-20,89.0
1947-10-21,89.0
1947-10-22,90.0
1947-10-23,90.0
1947-10-24,89.0
1947-10-25,85.0
1947-10-26,86.0
1947-10-27,85.0
1947-10-28,86.0
1947-10-29,88.0
1947-10-30,86.0
1947-10-31,81.0
1947-11-01,85.0
1947-11-02,83.0
1947-11-03,77.0
1947-11-04,77.0
1947-11-05,78.0
1947-11-06,78.0
1947-11-07,79.0
1947-11-08,78.0
1947-11-09,77.0
1947-11-10,76.0
1947-11-11,76.0
1947-11-12,75.0
1947-11-13,74.0
1947-11-14,75.0
1947-11-15,75.0
1947-11-16,75.0
1947-11-17,75.0
1947-11-18,76.0
1947-11-19,77.0
1947-11-20,77.0
1947-11-21,77.0
1947-11-22,76.0
1947-11-23,75.0
1947-11-24,72.0
1947-11-25,70.0
1947-11-26,70.0
1947-11-27,71.0
1947-11-28,75.0
1947-11-29,71.0
1947-11-30,69.0
1947-12-01,69.0
1947-12-02,71.0
1947-12-03,70.0
1947-12-04,70.0
1947-12-05,69.0
1947-12-06,69.0
1947-12-07,64.0
1947-12-08,64.0
1947-12-09,64.0
1947-12-10,64.0
1947-12-11,64.0
1947-12-12,64.0
1947-12-13,64.0
1947-12-14,64.0
1947-12-15,64.0
1947-12-16,60.0
1947-12-17,60.0
1947-12-18,60.0
1947-12-19,60.0
1947-12-20,60.0
1947-12-21,60.0
1947-12-22,60.0
1947-12-23,60.0
1947-12-24,60.0
1947-12-25,60.0
1947-12-26,60.0
1947-12-27,60.0
1947-12-28,60.0
1947-12-29,60.0
1947-12-30,60.0
1947-12-31,60.0
1948-01-01,54.0
1948-01-02,54.0
1948-01-03,54.0
1948-01-04,54.0
1948-01-05,54.0
1948-01-06,54.0
1948-01-07,54.0
1948-01-08,54.0
1948-01-09,54.0
1948-01-10,54.0
1948-01-11,54.0
1948-01-12,54.0
1948-01-13,54.0
1948-01-14,54.0
1948-01-15,54.0
1948-01-16,54.0
1948-01-17,54.0
1948-01-18,54.0
1948-01-19,54.0
1948-01-20,54.0
1948-01-21,54.0
1948-01-22,54.0
1948-01-23,54.0
1948-01-24,54.0
1948-01-25,54.0
1948-01-26,54.0
1948-01-27,54.0
1948-01-28,54.0
1948-01-29,54.0
1948-01-30,54.0
1948-01-31,54.0
1948-02-01,48.0
1948-02-02,48.0
1948-02-03,48.0
1948-02-04,48.0
1948-02-05,48.0
1948-02-06,48.0
1948-02-07,48.0
1948-02-08,48.0
1948-02-09,48.0
1948-02-10,48.0
1948-02-11,48.0
1948-02-12,48.0
1948-02-13,48.0
1948-02-14,48.0
1948-02-15,48.0
1948-02-16,48.0
1948-02-17,48.0
1948-02-18,48.0
1948-02-19,48.0
1948-02-20,48.0
1948-02-21,48.0
1948-02-22,48.0
1948-02-23,48.0
1948-02-24,48.0
1948-02-25,48.0
1948-02-26,48.0
1948-02-27,48.0
1948-02-28,48.0
1948-02-29,48.0
1948-03-01,49.0
1948-03-02,49.0
1948-03-03,49.0
1948-03-04,49.0
1948-03-05,49.0
1948-03-06,49.0
1948-03-07,49.0
1948-03-08,49.0
1948-03-09,49.0
1948-03-10,49.0
1948-03-11,49.0
1948-03-12,49.0
1948-03-13,49.0
1948-03-14,49.0
1948-03-15,49.0
1948-03-16,49.0
1948-03-17,49.0
1948-03-18,49.0
1948-03-19,49.0
1948-03-20,49.0
1948-03-21,49.0
1948-03-22,49.0
1948-03-23,49.0
1948-03-24,49.0
1948-03-25,49.0
1948-03-26,49.0
1948-03-27,49.0
1948-03-28,49.0
1948-03-29,49.0
1948-03-30,49.0
1948-03-31,49.0
1948-04-01,50.0
1948-04-02,50.0
1948-04-03,50.0
1948-04-04,50.0
1948-04-05,50.0
1948-04-06,50.0
1948-04-07,48.0
1948-04-08,49.0
1948-04-09,51.0
1948-04-10,53.0
1948-04-11,50.0
1948-04-12,50.0
1948-04-13,50.0
1948-04-14,51.0
1948-04-15,54.0
1948-04-16,55.0
1948-04-17,60.0
1948-04-18,62.0
1948-04-19,59.0
1948-04-20,60.0
1948-04-21,62.0
1948-04-22,59.0
1948-04-23,56.0
1948-04-24,54.0
1948-04-25,54.0
1948-04-26,52.0
1948-04-27,52.0
1948-04-28,56.0
1948-04-29,65.0
1948-04-30,60.0
1948-05-01,59.0
1948-05-02,56.0
1948-05-03,56.0
1948-05-04,59.0
1948-05-05,61.0
1948-05-06,64.0
1948-05-07,72.0
1948-05-08,69.0
1948-05-09,64.0
1948-05-10,63.0
1948-05-11,61.0
1948-05-12,60.0
1948-05-13,65.0
1948-05-14,83.0
1948-05-15,121.0
1948-05-16,174.0
1948-05-17,322.0
1948-05-18,426.0
1948-05-19,537.0
1948-05-20,554.0
1948-05-21,526.0
1948-05-22,537.0
1948-05-23,543.0
1948-05-24,560.0
1948-05-25,526.0
1948-05-26,462.0
1948-05-27,397.0
1948-05-28,426.0
1948-05-29,462.0
1948-05-30,384.0
1948-05-31,412.0
1948-06-01,456.0
1948-06-02,572.0
1948-06-03,532.0
1948-06-04,441.0
1948-06-05,384.0
1948-06-06,402.0
1948-06-07,407.0
1948-06-08,361.0
1948-06-09,361.0
1948-06-10,348.0
1948-06-11,384.0
1948-06-12,339.0
1948-06-13,299.0
1948-06-14,276.0
1948-06-15,241.0
1948-06-16,232.0
1948-06-17,226.0
1948-06-18,210.0
1948-06-19,196.0
1948-06-20,179.0
1948-06-21,187.0
1948-06-22,187.0
1948-06-23,166.0
1948-06-24,156.0
1948-06-25,150.0
1948-06-26,154.0
1948-06-27,145.0
1948-06-28,141.0
1948-06-29,136.0
1948-06-30,134.0
1948-07-01,136.0
1948-07-02,143.0
1948-07-03,159.0
1948-07-04,147.0
1948-07-05,134.0
1948-07-06,130.0
1948-07-07,128.0
1948-07-08,124.0
1948-07-09,121.0
1948-07-10,117.0
1948-07-11,115.0
1948-07-12,113.0
1948-07-13,110.0
1948-07-14,108.0
1948-07-15,104.0
1948-07-16,103.0
1948-07-17,103.0
1948-07-18,101.0
1948-07-19,108.0
1948-07-20,113.0
1948-07-21,108.0
1948-07-22,103.0
1948-07-23,99.0
1948-07-24,106.0
1948-07-25,104.0
1948-07-26,101.0
1948-07-27,96.0
1948-07-28,90.0
1948-07-29,89.0
1948-07-30,88.0
1948-07-31,83.0
1948-08-01,82.0
1948-08-02,78.0
1948-08-03,95.0
1948-08-04,111.0
1948-08-05,126.0
1948-08-06,119.0
1948-08-07,119.0
1948-08-08,166.0
1948-08-09,166.0
1948-08-10,136.0
1948-08-11,124.0
1948-08-12,113.0
1948-08-13,104.0
1948-08-14,103.0
1948-08-15,96.0
1948-08-16,93.0
1948-08-17,88.0
1948-08-18,103.0
1948-08-19,108.0
1948-08-20,96.0
1948-08-21,93.0
1948-08-22,98.0
1948-08-23,139.0
1948-08-24,128.0
1948-08-25,113.0
1948-08-26,104.0
1948-08-27,98.0
1948-08-28,92.0
1948-08-29,86.0
1948-08-30,85.0
1948-08-31,81.0
1948-09-01,80.0
1948-09-02,78.0
1948-09-03,77.0
1948-09-04,77.0
1948-09-05,74.0
1948-09-06,74.0
1948-09-07,74.0
1948-09-08,74.0
1948-09-09,72.0
1948-09-10,72.0
1948-09-11,72.0
1948-09-12,70.0
1948-09-13,70.0
1948-09-14,69.0
1948-09-15,68.0
1948-09-16,69.0
1948-09-17,69.0
1948-09-18,69.0
1948-09-19,76.0
1948-09-20,74.0
1948-09-21,72.0
1948-09-22,71.0
1948-09-23,70.0
1948-09-24,68.0
1948-09-25,68.0
1948-09-26,69.0
1948-09-27,67.0
1948-09-28,67.0
1948-09-29,67.0
1948-09-30,66.0
1948-10-01,64.0
1948-10-02,64.0
1948-10-03,63.0
1948-10-04,66.0